DUMMY MASS 1

Last updated on Wed Nov 29 2017 00:19:02 GMT+0000 (Coordinated Universal Time)

1 24925U 97048A 17332.04571990 .00000098 00000-0 81216-5 0 9991 2 24925 86.3326 327.8603 0007291 164.0346 196.1109 14.85156529 95900

Satellite not in orbit

DUMMY MASS 1